Zurück zum Katalog

CHINASAT-26

AktivKommunikationGEO
NORAD 55686·PAYLOAD·🇨🇳 China

Gestartet Feb 23, 2023 von Xichang Satellite Launch Center

Loading…

TLE

AktuellSource: Space-Track

Epoche: Sep 14, 2026, 14:23 UTC

1 55686U 23023A   26257.59988778 -.00000361  00000-0  00000-0 0  9994
2 55686   0.0556  70.6520 0002338  49.9230 214.0530  1.00270207 13122

Verfolge CHINASAT-26 in Echtzeit mit AllMySat

Download on the App Store